Fort Polk, LA

7:19 AM CDT on July 24, 2017 (GMT -0500)
Fort Polk

Weather History for KBKB - October, 2013

Change the Weather History Date:

Thursday, October 10, 2013

  Actual Average (KPOE) Record (KPOE)
Temperature  
Mean Temperature 68 °F -  
Max Temperature 82 °F 76 °F 87 °F (2010)
Min Temperature 53 °F 57 °F 46 °F (2000)
Cooling Degree Days 2    
Growing Degree Days 18 (Base 50)    
Moisture  
Dew Point 57 °F    
Average Humidity 74    
Maximum Humidity 93    
Minimum Humidity 42    
Precipitation  
Precipitation 0.01 in - - ()
Sea Level Pressure  
Sea Level Pressure 30.11 in    
Wind  
Wind Speed 1 mph (NE)    
Max Wind Speed 6 mph    
Max Gust Speed -    
Visibility 8 miles    
Events      
Averages and records for this station are not official NWS values.
T = Trace of Precipitation, MM = Missing Value Source: NWS Daily Summary

Daily Weather History Graph

Daily Weather History Graph

Search for Another Location

Airport or City:

Trip Planner

Search our weather history database for the weather conditions in past years. The results will help you decide how hot, cold, wet, or windy it might be!

Date:

Astronomy

Oct. 10, 2013 Rise Set
Actual Time 7:11 AM CDT 6:45 PM CDT
Civil Twilight 6:46 AM CDT 7:09 PM CDT
Nautical Twilight 6:18 AM CDT 7:37 PM CDT
Astronomical Twilight 5:50 AM CDT 8:05 PM CDT
Moon 12:48 PM CDT (10/10) 11:37 PM CDT (10/10)
Length of Visible Light 12h 22m
Length of Day
11h 34m
Waxing Crescent, 36% of the Moon is Illuminated
Oct 10
Waxing Crescent
Oct 11
First Quarter
Oct 18
Full
Oct 26
Last Quarter
Nov 3
New

Hourly Weather History & Observations

Time (CDT) Temp. Heat Index Dew Point Humidity Pressure Visibility Wind Dir Wind Speed Gust Speed Precip Events Conditions
12:54 AM 55.9 °F - 54.0 °F 93% 30.12 in 10.0 mi Calm Calm - N/A   Clear
1:54 AM 55.9 °F - 53.1 °F 90% 30.12 in 9.0 mi Calm Calm - N/A   Clear
2:54 AM 55.0 °F - 52.0 °F 89% 30.13 in 9.0 mi Calm Calm - 0.01 in   Clear
3:54 AM 54.0 °F - 52.0 °F 93% 30.13 in 7.0 mi Calm Calm - N/A   Clear
4:54 AM 54.0 °F - 51.1 °F 90% 30.13 in 7.0 mi Calm Calm - N/A   Clear
5:54 AM 53.1 °F - 51.1 °F 93% 30.13 in 6.0 mi Calm Calm - N/A   Clear
6:54 AM 53.1 °F - 50.0 °F 89% 30.14 in 6.0 mi Calm Calm - N/A   Clear
7:54 AM 54.0 °F - 52.0 °F 93% 30.15 in 6.0 mi Calm Calm - N/A   Clear
8:54 AM 64.9 °F - 60.1 °F 84% 30.16 in 10.0 mi Calm Calm - N/A   Clear
9:54 AM 73.0 °F - 61.0 °F 66% 30.17 in 10.0 mi Calm Calm - N/A   Clear
10:54 AM 77.0 °F - 60.1 °F 56% 30.17 in 10.0 mi Calm Calm - N/A   Clear
11:54 AM 80.1 °F 80.6 °F 57.9 °F 47% 30.17 in 10.0 mi NE 3.5 mph - N/A   Scattered Clouds
12:54 PM 80.1 °F 80.6 °F 57.9 °F 47% 30.13 in 10.0 mi Calm Calm - N/A   Clear
1:54 PM 82.9 °F 82.8 °F 59.0 °F 44% 30.10 in 10.0 mi Variable 4.6 mph - N/A   Clear
2:54 PM 82.9 °F 82.6 °F 57.9 °F 42% 30.08 in 10.0 mi Variable 5.8 mph - N/A   Clear
3:54 PM 82.0 °F 82.0 °F 57.9 °F 44% 30.06 in 10.0 mi Variable 4.6 mph - N/A   Clear
4:54 PM 81.0 °F 81.7 °F 61.0 °F 50% 30.05 in 10.0 mi Variable 3.5 mph - N/A   Clear
5:54 PM 78.1 °F - 60.1 °F 54% 30.05 in 10.0 mi Variable 4.6 mph - N/A   Clear
6:54 PM 70.0 °F - 62.1 °F 76% 30.06 in 10.0 mi Calm Calm - N/A   Clear
7:54 PM 66.9 °F - 62.1 °F 84% 30.07 in 10.0 mi Calm Calm - N/A   Clear
8:54 PM 64.9 °F - 61.0 °F 87% 30.07 in 10.0 mi Calm Calm - N/A   Partly Cloudy
9:54 PM 63.0 °F - 60.1 °F 90% 30.07 in 5.0 mi Calm Calm - N/A   Clear
10:54 PM 61.0 °F - 59.0 °F 93% 30.07 in 4.0 mi Calm Calm - N/A   Clear
11:54 PM 61.0 °F - 57.9 °F 90% 30.06 in 3.0 mi Calm Calm - N/A   Clear